INTELSAT 22 (IS-22)

Last updated on Sept. 30, 2020, 5:50 a.m. UTC

1 38098U 12011A   20273.86994073 -.00000076  00000-0  00000-0 0  9997
2 38098   0.0229 249.3899 0002966 312.9307 192.0576  1.00271810 30895
UTC
Height (km)
Latitude
Longitude
Inclination
Orbital Period
UTC large
Height (km)
Speed (km/s)
/
Latitude / Longitude
Inclination (degrees)
Orbital Period (minutes)
Azimuth
Elevation
Range (km)
Doppler Factor
iOS Compass Heading
iOS Angle

Next 30 passes for location: Hong Kong

Rise time Rise Azimuth (degrees) Set time Set Azimuth (degrees) Duration Max altitude (degrees)

No matching passes for this satellites